F4EEX Weather Reports


time (UTC)temp
C
wind
direction
speed
KPH
gust
KPH
rain 1hr
cm
rain 24hr
cm
rain mn
cm
humidity
%
barometer
mb
20260506174742 16 320 0.0 0.0 0.00 1.47 1.47 64 1009.4
20260506174242 16 320 0.0 0.0 0.00 1.47 1.47 64 1009.4
20260506173742 16 320 0.0 22.5 0.00 1.47 1.47 63 1009.4
20260506173242 16 309 22.5 22.5 0.00 1.47 1.47 64 1009.4
20260506172742 16 320 12.9 24.1 0.00 1.47 1.47 63 1009.4
20260506172242 16 300 9.7 19.3 0.00 1.47 1.47 61 1009.3
20260506171742 17 300 0.0 19.3 0.00 1.47 1.47 61 1009.2
20260506171242 17 300 0.0 22.5 0.00 1.47 1.47 61 1009.2
20260506170742 16 300 0.0 24.1 0.00 1.47 1.47 60 1009.2
20260506170242 17 329 0.0 17.7 0.00 1.47 1.47 62 1009.2
20260506165742 16 300 0.0 20.9 0.00 1.47 1.47 61 1009.2
20260506165242 16 300 3.2 19.3 0.00 1.47 1.47 61 1009.1
20260506164742 16 312 14.5 24.1 0.00 1.47 1.47 60 1009.2
20260506164242 17 300 1.6 27.4 0.00 1.47 1.47 59 1009.1
20260506163742 17 300 0.0 0.0 0.00 1.47 1.47 59 1009.1
20260506163242 17 300 0.0 0.0 0.00 1.47 1.47 59 1009.2
20260506162742 17 300 0.0 19.3 0.00 1.47 1.47 60 1009.3
20260506162242 17 300 0.0 19.3 0.00 1.47 1.47 60 1009.3
20260506161742 17 300 0.0 0.0 0.00 1.47 1.47 57 1009.3
20260506161242 17 300 0.0 0.0 0.00 1.47 1.47 59 1009.3
20260506160742 17 300 0.0 6.4 0.00 1.47 1.47 60 1009.4
20260506160242 17 300 0.0 25.7 0.00 1.47 1.47 58 1009.4
20260506155742 17 300 0.0 0.0 0.00 1.47 1.47 59 1009.4
20260506155242 17 300 0.0 0.0 0.00 1.47 1.47 59 1009.4
20260506154742 17 300 0.0 0.0 0.00 1.47 1.47 61 1009.4
20260506154242 17 300 0.0 0.0 0.00 1.47 1.47 59 1009.4
20260506153742 17 300 0.0 0.0 0.00 1.47 1.47 59 1009.4
20260506153242 17 300 0.0 0.0 0.00 1.47 1.47 57 1009.3
20260506152742 17 300 0.0 29.0 0.00 1.47 1.47 59 1009.3
20260506152242 17 300 0.0 30.6 0.00 1.47 1.47 60 1009.3
20260506151742 17 300 0.0 0.0 0.00 1.47 1.47 60 1009.3
20260506151242 17 300 0.0 3.2 0.00 1.47 1.47 59 1009.3
20260506150742 17 338 0.0 30.6 0.00 1.47 1.47 58 1009.4
20260506150242 17 28 0.0 29.0 0.00 1.47 1.47 57 1009.4
20260506145742 17 300 0.0 0.0 0.00 1.47 1.47 60 1009.4
20260506145242 17 300 0.0 0.0 0.00 1.47 1.47 59 1009.4
20260506144742 17 300 0.0 30.6 0.00 1.47 1.47 60 1009.4
20260506144242 17 323 0.0 24.1 0.00 1.47 1.47 61 1009.4
20260506143742 16 307 19.3 32.2 0.00 1.47 1.47 61 1009.5
20260506143242 16 300 4.8 32.2 0.00 1.47 1.47 60 1009.5
20260506142742 16 300 0.0 30.6 0.00 1.47 1.47 60 1009.4
20260506142242 16 300 0.0 3.2 0.00 1.47 1.47 60 1009.5
20260506141742 17 300 3.2 9.7 0.00 1.47 1.47 58 1009.6
20260506141242 16 300 0.0 29.0 0.00 1.47 1.47 61 1009.5
20260506140742 16 300 0.0 0.0 0.00 1.47 1.47 59 1009.5
20260506140242 17 300 0.0 0.0 0.00 1.47 1.47 60 1009.6
20260506135742 17 300 0.0 1.6 0.00 1.47 1.47 59 1009.6
20260506135242 17 300 0.0 1.6 0.00 1.47 1.47 57 1009.7
20260506134742 17 300 0.0 0.0 0.00 1.47 1.47 58 1009.8
20260506134242 17 300 0.0 0.0 0.00 1.47 1.47 57 1009.8
20260506133742 16 300 0.0 0.0 0.00 1.47 1.47 56 1009.9
20260506133242 17 300 0.0 0.0 0.00 1.47 1.47 55 1009.9
20260506132742 17 300 0.0 0.0 0.00 1.47 1.47 54 1010.0
20260506132242 17 300 0.0 0.0 0.00 1.47 1.47 57 1010.0
20260506131742 17 300 0.0 0.0 0.00 1.47 1.47 58 1010.0
20260506131242 16 300 0.0 11.3 0.00 1.47 1.47 58 1010.0
20260506130742 17 300 0.0 27.4 0.00 1.47 1.47 59 1010.0
20260506130242 16 317 22.5 25.7 0.00 1.47 1.47 58 1010.0
20260506125742 17 300 0.0 24.1 0.00 1.47 1.47 59 1010.0
20260506125242 16 299 17.7 29.0 0.00 1.47 1.47 59 1009.9
20260506124742 16 300 1.6 32.2 0.00 1.47 1.47 57 1009.9
20260506124242 17 300 0.0 0.0 0.00 1.47 1.47 57 1010.0
20260506123742 17 300 0.0 0.0 0.00 1.47 1.47 58 1009.9
20260506123242 17 300 0.0 0.0 0.00 1.47 1.47 59 1009.9
20260506122742 17 300 0.0 0.0 0.00 1.47 1.47 59 1010.0
20260506122242 17 300 0.0 0.0 0.00 1.47 1.47 59 1009.9
20260506121742 17 300 0.0 8.0 0.00 1.47 1.47 61 1010.0
20260506121242 16 300 0.0 0.0 0.00 1.47 1.47 62 1010.0
20260506120742 16 300 0.0 29.0 0.00 1.47 1.47 61 1010.0
20260506120243 16 300 0.0 22.5 0.00 1.47 1.47 63 1010.0
20260506115743 16 300 0.0 24.1 0.00 1.47 1.47 61 1010.0
20260506115243 16 324 0.0 19.3 0.00 1.47 1.47 61 1010.1
20260506114743 17 300 0.0 0.0 0.00 1.47 1.47 61 1010.0
20260506114243 17 300 0.0 0.0 0.00 1.47 1.47 60 1010.1
20260506113743 17 300 0.0 0.0 0.00 1.47 1.47 61 1010.0
20260506113243 16 300 0.0 0.0 0.00 1.47 1.47 62 1010.0
20260506112743 16 300 0.0 0.0 0.00 1.47 1.47 62 1010.0
20260506112243 16 300 0.0 0.0 0.00 1.47 1.47 63 1010.1
20260506111743 16 300 0.0 9.7 0.00 1.47 1.47 62 1010.2
20260506111243 16 300 0.0 0.0 0.00 1.47 1.47 63 1010.1
20260506110743 16 300 0.0 0.0 0.00 1.47 1.47 61 1010.1
20260506110243 16 300 0.0 0.0 0.00 1.47 1.47 60 1010.2
20260506105743 16 300 0.0 0.0 0.00 1.47 1.47 60 1010.2
20260506105243 16 300 0.0 0.0 0.00 1.47 1.47 62 1010.2
20260506104743 17 337 0.0 0.0 0.00 1.47 1.47 60 1010.2
20260506104243 16 337 0.0 0.0 0.00 1.47 1.47 61 1010.2
20260506103743 16 337 0.0 0.0 0.00 1.47 1.47 60 1010.1
20260506103243 17 337 0.0 0.0 0.00 1.47 1.47 59 1010.2
20260506102743 17 337 0.0 0.0 0.00 1.47 1.47 61 1010.1
20260506102243 17 337 0.0 0.0 0.00 1.47 1.47 61 1010.1
20260506101743 17 337 0.0 0.0 0.00 1.47 1.47 61 1010.1
20260506101243 16 337 0.0 0.0 0.00 1.47 1.47 61 1010.1
20260506100743 17 337 0.0 0.0 0.00 1.47 1.47 62 1010.1
20260506100243 16 337 0.0 0.0 0.00 1.47 1.47 63 1010.0
20260506095743 17 337 0.0 0.0 0.00 1.47 1.47 65 1010.0
20260506095243 16 337 0.0 0.0 0.00 1.47 1.47 64 1010.1
20260506094743 16 337 0.0 0.0 0.00 1.47 1.47 65 1010.1
20260506094243 16 337 0.0 0.0 0.00 1.47 1.47 64 1010.0
20260506093743 16 337 0.0 0.0 0.00 1.47 1.47 66 1009.9
20260506093243 16 337 0.0 0.0 0.00 1.47 1.47 65 1009.8
20260506092743 16 337 0.0 8.0 0.00 1.47 1.47 66 1009.9
20260506092243 16 337 6.4 14.5 0.00 1.47 1.47 66 1009.9
20260506091743 16 347 0.0 0.0 0.00 1.47 1.47 66 1009.8
20260506091243 16 347 0.0 0.0 0.00 1.47 1.47 66 1009.7
20260506090743 16 347 0.0 0.0 0.00 1.47 1.47 66 1009.6
20260506090243 16 347 0.0 0.0 0.00 1.47 1.47 67 1009.6
20260506085743 16 347 0.0 0.0 0.00 1.47 1.47 67 1009.6
20260506085243 15 347 0.0 14.5 0.00 1.47 1.47 69 1009.6
20260506084743 15 11 6.4 11.3 0.00 1.47 1.47 71 1009.6
20260506084243 15 300 0.0 16.1 0.00 1.47 1.47 70 1009.6
20260506083743 15 341 4.8 12.9 0.00 1.47 1.47 71 1009.6
20260506083243 15 300 0.0 12.9 0.00 1.47 1.47 71 1009.6
20260506082743 15 341 0.0 19.3 0.00 1.47 1.47 72 1009.7
20260506082243 15 323 3.2 11.3 0.00 1.47 1.47 75 1009.6
20260506081743 14 300 3.2 11.3 0.00 1.47 1.47 75 1009.6
20260506081243 14 326 11.3 11.3 0.00 1.47 1.47 76 1009.6
20260506080743 14 300 0.0 14.5 0.00 1.47 1.47 77 1009.6
20260506080243 14 331 0.0 14.5 0.00 1.47 1.47 79 1009.5
20260506073243 13 319 8.0 11.3 0.00 1.47 1.47 87 1009.3
20260506072743 13 320 9.7 14.5 0.00 1.47 1.47 87 1009.3
20260506072243 13 337 11.3 12.9 0.00 1.47 1.47 88 1009.3
20260506071743 12 300 0.0 14.5 0.00 1.47 1.47 89 1009.3
20260506071243 12 300 8.0 16.1 0.00 1.47 1.47 89 1009.2
20260506070743 12 300 14.5 16.1 0.00 1.47 1.47 90 1009.1
20260506070243 12 355 8.0 14.5 0.00 1.47 1.47 90 1009.0
20260506062243 12 331 0.0 4.8 0.00 1.47 1.47 94 1008.8
20260506061743 12 345 0.0 11.3 0.00 1.47 1.47 94 1008.8
20260506061243 12 326 0.0 9.7 0.00 1.47 1.47 94 1008.7
20260506060743 11 350 6.4 9.7 0.00 1.47 1.47 94 1008.7
20260506060243 12 352 0.0 11.3 0.00 1.47 1.47 94 1008.7
20260506051243 11 344 0.0 1.6 0.00 1.47 1.47 94 1008.2
20260506050743 11 357 0.0 8.0 0.00 1.47 1.47 94 1008.2
20260506050243 12 324 0.0 11.3 0.00 1.47 1.47 94 1008.1
20260506044743 12 354 0.0 0.0 0.00 1.47 1.47 94 1008.0
20260506044243 12 354 0.0 0.0 0.00 1.47 1.47 94 1007.9
20260506043743 12 354 0.0 0.0 0.00 1.47 1.47 94 1007.9
20260506043243 12 354 0.0 0.0 0.00 1.47 1.47 94 1007.8
20260506042743 12 354 0.0 4.8 0.00 1.47 1.47 94 1007.8
20260506042243 12 351 1.6 6.4 0.00 1.47 1.47 94 1007.8
20260506041743 12 358 1.6 8.0 0.00 1.47 1.47 94 1007.8
20260506041243 12 7 8.0 8.0 0.00 1.47 1.47 94 1007.7
20260506040743 12 40 0.0 0.0 0.00 1.47 1.47 94 1007.8
20260506040243 12 40 0.0 0.0 0.00 1.47 1.47 94 1007.9
20260506035743 12 40 0.0 0.0 0.00 1.47 1.47 93 1007.9
20260506035243 12 40 0.0 0.0 0.00 1.47 1.47 93 1007.9
20260506034743 12 40 0.0 0.0 0.00 1.47 1.47 93 1007.8
20260506034243 12 40 0.0 0.0 0.00 1.47 1.47 93 1007.8
20260506033743 12 40 0.0 0.0 0.00 1.47 1.47 93 1007.7
20260506033243 12 40 0.0 0.0 0.00 1.47 1.47 93 1007.7
20260506032743 12 40 0.0 0.0 0.00 1.47 1.47 93 1007.6
20260506032243 12 40 0.0 0.0 0.00 1.47 1.47 93 1007.6
20260506031743 12 40 0.0 0.0 0.00 1.47 1.47 93 1007.4
20260506031243 12 40 0.0 0.0 0.00 1.47 1.47 93 1007.4
20260506030743 12 40 0.0 4.8 0.00 1.47 1.47 93 1007.4
20260506030243 12 329 0.0 6.4 0.00 1.47 1.47 93 1007.6
20260506025743 12 300 0.0 0.0 0.00 1.47 1.47 93 1007.4
20260506025243 12 300 0.0 0.0 0.00 1.47 1.47 93 1007.4
20260506024743 12 300 0.0 0.0 0.00 1.47 1.47 93 1007.3
20260506024243 12 300 0.0 0.0 0.00 1.47 1.47 93 1007.1
20260506023743 12 300 0.0 0.0 0.00 1.47 1.47 93 1007.1
20260506023243 12 300 0.0 0.0 0.00 1.47 1.47 93 1007.1
20260506022743 12 300 0.0 0.0 0.00 1.47 1.47 93 1007.1
20260506022243 12 300 0.0 0.0 0.00 1.47 1.47 93 1007.1
20260506021743 12 300 0.0 0.0 0.00 1.47 1.47 93 1007.0
20260506021243 12 300 0.0 0.0 0.00 1.47 1.47 93 1006.9
20260506020743 12 300 0.0 0.0 0.00 1.47 1.47 93 1006.9
20260506020243 12 300 0.0 11.3 0.00 1.47 1.47 93 1006.8
20260506015743 12 300 0.0 0.0 0.03 1.47 1.47 93 1006.8
20260506015243 12 300 0.0 0.0 0.03 1.47 1.47 93 1006.7
20260506014743 12 300 0.0 0.0 0.08 1.47 1.47 93 1006.7
20260506014243 12 300 0.0 0.0 0.10 1.47 1.47 92 1006.6
20260506013743 12 300 0.0 0.0 0.13 1.47 1.47 92 1006.5
20260506013243 12 300 0.0 0.0 0.18 1.47 1.47 92 1006.5
20260506012744 12 300 0.0 11.3 0.23 1.47 1.47 93 1006.4
20260506012243 12 350 0.0 11.3 0.28 1.47 1.47 92 1006.1
20260506011743 12 338 11.3 12.9 0.36 1.47 1.47 93 1006.1
20260506011243 12 1 6.4 12.9 0.41 1.47 1.47 93 1006.0
20260506010744 12 2 6.4 14.5 0.48 1.47 1.47 92 1005.9
20260506010244 12 1 8.0 11.3 0.56 1.47 1.47 92 1006.0
20260506005743 13 47 3.2 14.5 0.56 1.45 1.45 92 1006.0
20260506005243 12 300 1.6 14.5 0.61 1.50 1.45 92 1006.3
20260506004744 13 59 4.8 11.3 0.58 1.45 1.40 92 1006.6
20260506004244 13 182 3.2 14.5 0.64 1.42 1.37 92 1007.3
20260506003744 13 300 0.0 0.0 0.74 1.40 1.35 92 1007.6
20260506003244 13 300 0.0 11.3 0.71 1.35 1.30 92 1007.8
20260506002744 13 109 1.6 12.9 0.69 1.30 1.24 91 1007.7
20260506002244 13 61 8.0 9.7 0.66 1.24 1.17 91 1008.0
20260506001744 13 15 0.0 9.7 0.61 1.17 1.12 91 1008.5
20260506001244 13 2 0.0 19.3 0.61 1.12 1.07 91 1008.6
20260506000744 13 300 0.0 14.5 0.56 1.04 0.99 92 1008.6
20260506000244 13 357 14.5 19.3 0.51 0.97 0.91 91 1008.5
20260505235744 14 336 4.8 19.3 0.58 0.94 0.89 90 1008.6
20260505235244 14 300 14.5 14.5 0.58 0.89 0.84 90 1008.3
20260505234744 14 300 0.0 9.7 0.58 0.86 0.81 90 1008.3
20260505234244 13 345 0.0 8.0 0.51 0.79 0.74 89 1008.0
20260505233744 14 4 4.8 8.0 0.41 0.66 0.61 89 1008.0
20260505233244 13 106 0.0 8.0 0.43 0.64 0.58 88 1007.9
20260505232744 14 106 0.0 1.6 0.51 0.61 0.56 88 1007.8
20260505232244 14 344 0.0 6.4 0.51 0.58 0.53 87 1007.7
20260505231744 14 46 4.8 6.4 0.51 0.56 0.51 87 1007.7
20260505231244 14 22 0.0 0.0 0.46 0.51 0.46 86 1007.9
20260505230744 14 22 0.0 0.0 0.43 0.48 0.43 86 1008.0
20260505230244 14 22 0.0 0.0 0.41 0.46 0.41 86 1008.0
20260505225744 15 22 0.0 0.0 0.30 0.36 0.30 85 1008.1
20260505225244 15 22 0.0 0.0 0.25 0.36 0.25 85 1008.3
20260505224744 15 22 0.0 0.0 0.23 0.33 0.23 84 1008.4
20260505224244 15 22 0.0 0.0 0.23 0.33 0.23 83 1008.3
20260505223744 15 22 0.0 1.6 0.20 0.30 0.20 83 1008.3
20260505223244 15 338 0.0 0.0 0.15 0.25 0.15 82 1008.3
20260505222744 15 338 0.0 0.0 0.05 0.15 0.05 81 1008.5
20260505222244 15 338 0.0 0.0 0.03 0.13 0.03 79 1008.4
20260505221744 15 338 0.0 0.0 0.00 0.10 0.00 78 1008.4
20260505221244 15 338 0.0 0.0 0.00 0.10 0.00 77 1008.2
20260505220744 15 338 0.0 0.0 0.00 0.10 0.00 77 1008.3
20260505220244 16 338 0.0 0.0 0.00 0.10 0.00 76 1008.2
20260505215744 16 338 0.0 0.0 0.00 0.10 0.53 75 1008.2
20260505215244 16 338 0.0 0.0 0.00 0.61 0.53 74 1008.4
20260505214744 16 338 0.0 3.2 0.00 0.61 0.53 74 1008.5
20260505214244 16 344 3.2 4.8 0.00 0.61 0.53 73 1008.6
20260505213744 16 327 0.0 3.2 0.00 0.61 0.53 73 1008.8
20260505213244 16 343 3.2 4.8 0.00 0.61 0.53 72 1008.9
20260505212744 16 355 0.0 3.2 0.00 0.61 0.53 72 1009.0
20260505212244 16 343 3.2 3.2 0.00 0.61 0.53 72 1009.1
20260505211744 15 136 0.0 0.0 0.00 0.61 0.53 73 1009.2
20260505211244 16 136 0.0 0.0 0.00 0.61 0.53 73 1009.2
20260505210744 16 136 0.0 3.2 0.00 0.61 0.53 73 1009.2
20260505210244 15 203 3.2 3.2 0.00 0.61 0.53 74 1009.3
20260505205744 16 75 0.0 9.7 0.00 0.61 0.53 74 1009.2
20260505205244 15 135 1.6 8.0 0.00 0.71 0.53 74 1009.2
20260505204744 15 147 0.0 3.2 0.00 0.71 0.53 75 1009.3
20260505204244 15 300 0.0 14.5 0.00 0.71 0.53 75 1009.2
20260505203744 15 132 1.6 8.0 0.00 0.71 0.53 76 1009.1
20260505203244 15 50 1.6 6.4 0.00 0.71 0.53 77 1009.0
20260505202744 16 129 0.0 0.0 0.00 0.71 0.53 77 1008.9
20260505202244 15 129 0.0 0.0 0.00 0.71 0.53 77 1008.8
20260505201744 15 129 0.0 14.5 0.00 0.71 0.53 78 1008.8
20260505201244 15 129 0.0 4.8 0.00 0.71 0.53 78 1008.8
20260505200744 16 154 1.6 12.9 0.00 0.71 0.53 78 1008.7
20260505200244 16 198 1.6 6.4 0.00 0.71 0.53 78 1008.7
20260505195744 16 164 6.4 14.5 0.00 0.71 0.53 78 1008.7
20260505195244 16 150 3.2 16.1 0.00 0.71 0.53 78 1008.7
20260505194744 16 126 9.7 14.5 0.00 0.71 0.53 77 1008.7
20260505194244 16 220 3.2 12.9 0.00 0.71 0.53 77 1008.7
20260505193744 16 170 6.4 14.5 0.00 0.71 0.53 76 1008.6
20260505193244 16 157 1.6 14.5 0.00 0.71 0.53 75 1008.7
20260505192744 16 188 1.6 14.5 0.00 0.71 0.53 74 1008.7
20260505192244 16 170 11.3 14.5 0.00 0.71 0.53 72 1008.6
20260505191744 16 123 4.8 6.4 0.00 0.71 0.53 69 1008.6
20260505191244 16 66 0.0 14.5 0.00 0.71 0.53 68 1008.7
20260505190744 16 185 4.8 12.9 0.00 0.71 0.53 67 1008.7
20260505190244 16 84 0.0 12.9 0.00 0.71 0.53 66 1008.7
20260505185744 17 126 3.2 3.2 0.00 0.71 0.53 65 1008.7
20260505185244 16 132 0.0 14.5 0.00 0.71 0.53 64 1008.7
20260505184744 17 87 3.2 11.3 0.00 0.71 0.53 63 1008.9
20260505184244 17 126 0.0 9.7 0.00 0.71 0.53 62 1008.9
20260505183744 17 111 0.0 12.9 0.00 0.71 0.53 61 1008.9
20260505183244 17 323 0.0 0.0 0.00 0.71 0.53 60 1008.9
20260505182744 17 323 0.0 0.0 0.00 0.71 0.53 59 1009.0
20260505182244 17 323 0.0 0.0 0.00 0.71 0.53 59 1009.0
20260505181744 17 323 0.0 0.0 0.00 0.71 0.53 59 1009.0
20260505181244 17 323 0.0 0.0 0.00 0.71 0.53 58 1009.0
20260505180744 17 323 0.0 0.0 0.00 0.71 0.53 58 1009.1
20260505180244 18 323 0.0 1.6 0.00 0.71 0.53 57 1009.1
20260505175744 17 334 0.0 1.6 0.00 0.71 0.53 57 1009.1
20260505175244 18 337 0.0 4.8 0.00 0.86 0.53 56 1009.0